Klawock, AK

6:29 AM AKDT on September 18, 2019 (GMT -0800)
Klawock

Weather History for PAKW - August, 2019

Change the Weather History Date:

Sunday, August 25, 2019

  Actual Average Record
Temperature  
Mean Temperature 60 °F -  
Max Temperature 66 °F 61 °F 73 °F (2004)
Min Temperature 55 °F 48 °F 41 °F (2003)
Degree Days  
Heating Degree Days 6    
Growing Degree Days 10 (Base 50)    
Moisture  
Dew Point 55 °F    
Average Humidity 96    
Maximum Humidity 100    
Minimum Humidity 75    
Precipitation  
Precipitation 0.28 in - - ()
Sea Level Pressure  
Sea Level Pressure 30.13 in    
Wind  
Wind Speed 3 mph (SSW)    
Max Wind Speed 10 mph    
Max Gust Speed -    
Visibility 7 miles    
Events Rain    
Averages and records for this station are not official NWS values.
T = Trace of Precipitation, MM = Missing Value Source: NWS Daily Summary

Daily Weather History Graph

Daily Weather History Graph

Search for Another Location

Airport or City:

Astronomy

Aug. 25, 2019 Rise Set
Actual Time 5:43 AM AKDT 8:03 PM AKDT
Civil Twilight 5:03 AM AKDT 8:43 PM AKDT
Nautical Twilight 4:11 AM AKDT 9:34 PM AKDT
Astronomical Twilight 3:08 AM AKDT 10:37 PM AKDT
Moon No Moon Rise 5:11 PM AKDT (8/25)
Length of Visible Light 15h 39m
Length of Day
14h 19m
Waning Crescent, 27% of the Moon is Illuminated
Aug 25
Waning Crescent
Aug 30
New
Sep 5
First Quarter
Sep 13
Full
Sep 21
Last Quarter

Hourly Weather History & Observations

Time (AKDT) Temp. Dew Point Humidity Pressure Visibility Wind Dir Wind Speed Gust Speed Precip Events Conditions
1:08 AM 55.0 °F 55.0 °F 100% 30.03 in 5.0 mi SSW 5.8 mph - 0.01 in Rain Light Rain
1:53 AM 55.0 °F 55.0 °F 100% 30.04 in 7.0 mi South 4.6 mph - 0.01 in   Overcast
2:38 AM 55.0 °F 55.0 °F 100% 30.05 in 7.0 mi Calm Calm - 0.00 in   Overcast
2:46 AM 55.0 °F 55.0 °F 100% 30.05 in 7.0 mi Calm Calm - 0.00 in   Overcast
2:51 AM 55.4 °F 55.4 °F 100% 30.05 in 7.0 mi SSE 3.5 mph - 0.00 in   Mostly Cloudy
2:53 AM 55.0 °F 55.0 °F 100% 30.05 in 7.0 mi South 4.6 mph - 0.00 in   Mostly Cloudy
3:09 AM 55.0 °F 55.0 °F 100% 30.06 in 2.0 mi Calm Calm - 0.04 in Rain Heavy Rain
3:13 AM 55.0 °F 55.0 °F 100% 30.06 in 1.5 mi Calm Calm - 0.08 in Rain Heavy Rain
3:18 AM 55.0 °F 55.0 °F 100% 30.06 in 2.0 mi Calm Calm - 0.09 in Rain Rain
3:25 AM 55.0 °F 55.0 °F 100% 30.06 in 4.0 mi Calm Calm - 0.09 in Rain Light Rain
3:32 AM 55.0 °F 55.0 °F 100% 30.06 in 4.0 mi Calm Calm - 0.09 in Rain Light Rain
3:51 AM 55.4 °F 55.4 °F 100% 30.07 in 2.5 mi South 3.5 mph - 0.11 in Rain Rain
3:58 AM 55.0 °F 55.0 °F 100% 30.06 in 1.5 mi South 3.5 mph - 0.07 in Rain Heavy Rain
4:13 AM 55.0 °F 55.0 °F 100% 30.07 in 2.0 mi South 4.6 mph - 0.15 in Rain Heavy Rain
4:27 AM 55.0 °F 55.0 °F 100% 30.07 in 3.0 mi SSE 4.6 mph - 0.20 in Rain Light Rain
4:36 AM 55.0 °F 55.0 °F 100% 30.07 in 6.0 mi SSW 4.6 mph - 0.20 in Rain Light Rain
4:46 AM 55.0 °F 55.0 °F 100% 30.07 in 7.0 mi SW 6.9 mph - 0.20 in Rain Light Rain
4:53 AM 55.0 °F 55.0 °F 100% 30.08 in 4.0 mi SW 5.8 mph - 0.22 in Rain Heavy Rain
4:57 AM 55.0 °F 55.0 °F 100% 30.08 in 2.5 mi SW 8.1 mph - 0.02 in Rain Heavy Rain
5:11 AM 55.0 °F 55.0 °F 100% 30.08 in 5.0 mi Calm Calm - 0.05 in Rain Light Rain
5:51 AM 55.4 °F 55.4 °F 100% 30.09 in 7.0 mi SSW 4.6 mph - 0.05 in   Overcast
5:53 AM 55.9 °F 55.9 °F 100% 30.09 in 7.0 mi SSW 4.6 mph - 0.05 in   Overcast
6:01 AM 55.0 °F 55.0 °F 100% 30.10 in 7.0 mi SSW 4.6 mph - N/A   Overcast
6:23 AM 55.9 °F 55.9 °F 100% 30.11 in 7.0 mi SSW 4.6 mph - N/A   Overcast
6:44 AM 55.0 °F 55.0 °F 100% 30.11 in 5.0 mi South 4.6 mph - N/A   Overcast
6:51 AM 55.4 °F 55.4 °F 100% 30.12 in 6.0 mi South 4.6 mph - N/A   Overcast
6:53 AM 55.0 °F 55.0 °F 100% 30.12 in 6.0 mi South 3.5 mph - N/A   Overcast
7:53 AM 55.9 °F 55.0 °F 97% 30.14 in 8.0 mi South 4.6 mph - N/A   Overcast
8:38 AM 57.0 °F 55.9 °F 96% 30.14 in 10.0 mi South 3.5 mph - N/A   Overcast
8:53 AM 57.0 °F 55.9 °F 96% 30.15 in 10.0 mi South 4.6 mph - N/A   Overcast
9:07 AM 57.9 °F 55.9 °F 93% 30.15 in 10.0 mi South 4.6 mph - N/A   Overcast
9:15 AM 57.9 °F 55.9 °F 93% 30.15 in 10.0 mi South 6.9 mph - N/A   Overcast
9:53 AM 59.0 °F 55.9 °F 90% 30.16 in 10.0 mi SSW 5.8 mph - N/A   Mostly Cloudy
10:53 AM 60.1 °F 55.9 °F 86% 30.17 in 10.0 mi SSW 5.8 mph - N/A   Scattered Clouds
11:53 AM 63.0 °F 57.0 °F 81% 30.19 in 10.0 mi Variable 5.8 mph - N/A   Clear
12:53 PM 64.0 °F 57.0 °F 78% 30.19 in 10.0 mi Variable 6.9 mph - N/A   Clear
1:53 PM 64.9 °F 57.0 °F 75% 30.19 in 10.0 mi Variable 6.9 mph - N/A   Clear
3:53 PM 63.0 °F 55.9 °F 78% 30.20 in 10.0 mi SW 10.4 mph - N/A   Clear
4:53 PM 62.1 °F 55.9 °F 80% 30.20 in 10.0 mi SW 4.6 mph - N/A   Mostly Cloudy
6:53 PM 57.9 °F 55.0 °F 90% 30.22 in 10.0 mi SSW 4.6 mph - N/A   Partly Cloudy
7:14 PM 57.9 °F 55.9 °F 93% 30.22 in 10.0 mi Calm Calm - N/A   Scattered Clouds
7:53 PM 57.0 °F 55.9 °F 96% 30.22 in 10.0 mi SW 4.6 mph - N/A   Mostly Cloudy
8:00 PM 57.0 °F 55.9 °F 96% 30.23 in 10.0 mi Calm Calm - N/A   Overcast
8:05 PM 57.0 °F 55.9 °F 96% 30.23 in 10.0 mi Calm Calm - N/A   Overcast
8:53 PM 55.9 °F 55.0 °F 97% 30.22 in 10.0 mi Calm Calm - N/A   Mostly Cloudy
9:40 PM 55.9 °F 55.9 °F 100% 30.22 in 10.0 mi Calm Calm - N/A   Overcast
9:53 PM 55.9 °F 55.0 °F 97% 30.22 in 10.0 mi Calm Calm - N/A   Overcast
10:31 PM 55.9 °F 55.0 °F 97% 30.22 in 10.0 mi Calm Calm - N/A   Overcast
10:53 PM 55.9 °F 55.9 °F 100% 30.22 in 10.0 mi Calm Calm - N/A   Overcast
11:53 PM 55.9 °F 55.9 °F 100% 30.22 in 10.0 mi Calm Calm - N/A   Overcast